EIGHN EIKY-EIKN

Flight info

Callsign EIGHN
Flight time 0h 53m
Altitude 19000
Route KY019/N0310F200 DCT ELPOM/N0308F190 DCT VP025 DCT EKNIS/N0310F200 DCT UZVEW DCT VP059 DCT KN005 DCT CEWHI
Aircraft B350/L-SBGRW/S

Departure

Time 2026-04-26 21:17
Airport Kerry Airport (EIKY)

Arrival

Time 2026-04-26 22:11
Airport Ireland West Airport Knock (EIKN)
Time Latitude Longitude Altitude Speed Heading
2026-04-26 21:15 52.18115 -9.53308 83 ft 3 kts 221°
2026-04-26 21:16 52.18085 -9.53388 83 ft 15 kts 240°
2026-04-26 21:16 52.18034 -9.53523 81 ft 12 kts 234°
2026-04-26 21:16 52.17956 -9.53598 82 ft 10 kts 162°
2026-04-26 21:16 52.17906 -9.53574 82 ft 6 kts 161°
2026-04-26 21:17 52.17862 -9.53526 82 ft 6 kts 89°
2026-04-26 21:17 52.17966 -9.52960 97 ft 92 kts 72°
2026-04-26 21:17 52.18270 -9.51883 441 ft 116 kts 54°
2026-04-26 21:17 52.18513 -9.50554 911 ft 126 kts 75°
2026-04-26 21:18 52.18806 -9.49198 1356 ft 134 kts 65°
2026-04-26 21:18 52.19214 -9.47770 1726 ft 143 kts 60°
2026-04-26 21:18 52.19743 -9.46290 2002 ft 153 kts 50°
2026-04-26 21:18 52.20175 -9.45427 2162 ft 158 kts 45°
2026-04-26 21:19 52.21037 -9.44214 2354 ft 165 kts 26°
2026-04-26 21:19 52.22007 -9.43070 2574 ft 171 kts 43°
2026-04-26 21:19 52.22779 -9.41564 2801 ft 173 kts 48°
2026-04-26 21:19 52.23528 -9.39989 3030 ft 174 kts 49°
2026-04-26 21:20 52.24272 -9.38396 3260 ft 174 kts 49°
2026-04-26 21:20 52.26613 -9.33323 3968 ft 175 kts 49°
2026-04-26 21:21 52.27364 -9.31687 4188 ft 175 kts 49°
2026-04-26 21:21 52.28080 -9.30118 4531 ft 168 kts 48°
2026-04-26 21:21 52.28771 -9.28603 4912 ft 162 kts 47°
2026-04-26 21:21 52.29452 -9.27113 5265 ft 160 kts 47°
2026-04-26 21:22 52.30131 -9.25631 5601 ft 159 kts 46°
2026-04-26 21:22 52.30801 -9.24168 5921 ft 159 kts 46°
2026-04-26 21:22 52.31486 -9.22670 6240 ft 160 kts 46°
2026-04-26 21:23 52.32953 -9.19930 6840 ft 150 kts 14°
2026-04-26 21:23 52.33912 -9.19603 7146 ft 143 kts 354°
2026-04-26 21:23 52.34917 -9.19542 7448 ft 144 kts 349°
2026-04-26 21:23 52.35909 -9.19560 7826 ft 139 kts 346°
2026-04-26 21:24 52.36886 -9.19621 8185 ft 137 kts 344°
2026-04-26 21:24 52.37609 -9.19688 8442 ft 136 kts 343°
2026-04-26 21:24 52.37792 -9.19706 8507 ft 136 kts 343°
2026-04-26 21:24 52.38739 -9.19815 8834 ft 136 kts 342°
2026-04-26 21:25 52.39702 -9.19938 9158 ft 136 kts 341°
2026-04-26 21:25 52.40671 -9.20071 9476 ft 137 kts 340°
2026-04-26 21:25 52.41607 -9.20198 9854 ft 131 kts 340°
2026-04-26 21:25 52.42509 -9.20321 10224 ft 126 kts 338°
2026-04-26 21:26 52.43394 -9.20453 10557 ft 125 kts 337°
2026-04-26 21:26 52.44262 -9.20587 10867 ft 125 kts 336°
2026-04-26 21:26 52.45142 -9.20724 11168 ft 125 kts 336°
2026-04-26 21:26 52.46022 -9.20864 11459 ft 126 kts 336°
2026-04-26 21:27 52.46918 -9.21004 11746 ft 127 kts 335°
2026-04-26 21:27 52.47829 -9.21146 12029 ft 128 kts 335°
2026-04-26 21:27 52.48723 -9.21284 12302 ft 128 kts 335°
2026-04-26 21:27 52.49628 -9.21422 12574 ft 128 kts 334°
2026-04-26 21:28 52.50529 -9.21560 12841 ft 128 kts 334°
2026-04-26 21:28 52.51436 -9.21699 13104 ft 128 kts 334°
2026-04-26 21:28 52.52346 -9.21840 13363 ft 128 kts 333°
2026-04-26 21:28 52.53252 -9.21980 13616 ft 128 kts 333°
2026-04-26 21:29 52.54170 -9.22129 13779 ft 136 kts 333°
2026-04-26 21:29 52.55206 -9.22283 13866 ft 156 kts 347°
2026-04-26 21:29 52.56336 -9.21689 14017 ft 179 kts 20°
2026-04-26 21:29 52.57427 -9.20458 13443 ft 230 kts 28°
2026-04-26 21:30 52.58897 -9.18806 12780 ft 241 kts 27°
2026-04-26 21:30 52.60298 -9.17376 11622 ft 238 kts 25°
2026-04-26 21:30 52.60918 -9.16778 11137 ft 234 kts 22°
2026-04-26 21:30 52.61886 -9.15983 9566 ft 263 kts 18°
2026-04-26 21:31 52.63956 -9.14377 8470 ft 218 kts 26°
2026-04-26 21:31 52.65002 -9.12668 7847 ft 193 kts 43°
2026-04-26 21:31 52.65509 -9.11718 7506 ft 175 kts 43°
2026-04-26 21:31 52.66290 -9.10223 6679 ft 168 kts 44°
2026-04-26 21:32 52.67004 -9.08791 6209 ft 141 kts 44°
2026-04-26 21:32 52.67757 -9.07315 5269 ft 191 kts 45°
2026-04-26 21:32 52.68677 -9.05502 4208 ft 219 kts 47°
2026-04-26 21:32 52.69637 -9.03518 3458 ft 214 kts 47°
2026-04-26 21:33 52.70533 -9.01772 3344 ft 185 kts 45°
2026-04-26 21:33 52.71421 -9.00689 3764 ft 133 kts 17°
2026-04-26 21:33 52.72234 -9.00172 4150 ft 117 kts 11°
2026-04-26 21:33 52.73002 -8.99765 4445 ft 111 kts
2026-04-26 21:34 52.73748 -8.99407 4708 ft 109 kts
2026-04-26 21:34 52.74495 -8.99071 4959 ft 110 kts
2026-04-26 21:34 52.75250 -8.98746 5217 ft 111 kts
2026-04-26 21:34 52.75949 -8.98443 5669 ft 100 kts
2026-04-26 21:35 52.76745 -8.98139 5801 ft 128 kts
2026-04-26 21:35 52.77708 -8.97861 5980 ft 145 kts
2026-04-26 21:35 52.78731 -8.97614 6269 ft 150 kts 359°
2026-04-26 21:35 52.79840 -8.97395 6342 ft 166 kts 359°
2026-04-26 21:36 52.81050 -8.97206 6351 ft 178 kts 358°
2026-04-26 21:36 52.81890 -8.97098 6350 ft 184 kts 358°
2026-04-26 21:36 52.83674 -8.96913 6347 ft 190 kts 356°
2026-04-26 21:36 52.85047 -8.96802 6346 ft 192 kts 356°
2026-04-26 21:37 52.86391 -8.96718 6345 ft 193 kts 355°
2026-04-26 21:37 52.87762 -8.96654 6345 ft 194 kts 355°
2026-04-26 21:37 52.89123 -8.96694 6344 ft 192 kts 351°
2026-04-26 21:37 52.90480 -8.96817 6344 ft 192 kts 351°
2026-04-26 21:38 52.91840 -8.96949 6344 ft 193 kts 350°
2026-04-26 21:38 52.93212 -8.97084 6344 ft 193 kts 350°
2026-04-26 21:38 52.94560 -8.97217 6344 ft 193 kts 350°
2026-04-26 21:38 52.95941 -8.97354 6344 ft 193 kts 350°
2026-04-26 21:39 52.97296 -8.97488 6344 ft 193 kts 350°
2026-04-26 21:39 52.98646 -8.97622 6344 ft 193 kts 350°
2026-04-26 21:39 53.00002 -8.97756 6344 ft 193 kts 350°
2026-04-26 21:39 53.01385 -8.97894 6344 ft 193 kts 350°
2026-04-26 21:40 53.02742 -8.98029 6344 ft 194 kts 350°
2026-04-26 21:40 53.04114 -8.98166 6344 ft 194 kts 350°
2026-04-26 21:40 53.05479 -8.98302 6344 ft 194 kts 350°
2026-04-26 21:40 53.06846 -8.98438 6344 ft 195 kts 350°
2026-04-26 21:41 53.08231 -8.98577 6344 ft 195 kts 350°
2026-04-26 21:41 53.09587 -8.98712 6345 ft 195 kts 350°
2026-04-26 21:41 53.10987 -8.98852 6344 ft 195 kts 350°
2026-04-26 21:41 53.12344 -8.98987 6344 ft 196 kts 350°
2026-04-26 21:42 53.13735 -8.99127 6344 ft 196 kts 350°
2026-04-26 21:42 53.15119 -8.99265 6344 ft 196 kts 350°
2026-04-26 21:42 53.16497 -8.99403 6344 ft 196 kts 350°
2026-04-26 21:42 53.17885 -8.99542 6344 ft 196 kts 350°
2026-04-26 21:43 53.19255 -8.99680 6344 ft 196 kts 350°
2026-04-26 21:43 53.20635 -8.99818 6344 ft 196 kts 350°
2026-04-26 21:43 53.22024 -8.99958 6344 ft 196 kts 350°
2026-04-26 21:43 53.23408 -9.00097 6344 ft 196 kts 350°
2026-04-26 21:44 53.24793 -9.00236 6344 ft 196 kts 350°
2026-04-26 21:44 53.26174 -9.00375 6344 ft 196 kts 350°
2026-04-26 21:44 53.27552 -9.00514 6344 ft 196 kts 350°
2026-04-26 21:44 53.28945 -9.00654 6344 ft 196 kts 350°
2026-04-26 21:45 53.30306 -9.00792 6344 ft 196 kts 350°
2026-04-26 21:45 53.31700 -9.00932 6344 ft 196 kts 350°
2026-04-26 21:45 53.33089 -9.01073 6344 ft 196 kts 350°
2026-04-26 21:45 53.34488 -9.01214 6344 ft 196 kts 350°
2026-04-26 21:46 53.35880 -9.01355 6344 ft 196 kts 350°
2026-04-26 21:46 53.37275 -9.01496 6344 ft 196 kts 350°
2026-04-26 21:46 53.38679 -9.01638 6344 ft 196 kts 350°
2026-04-26 21:46 53.40066 -9.01778 6344 ft 196 kts 350°
2026-04-26 21:47 53.41447 -9.01918 6344 ft 196 kts 350°
2026-04-26 21:47 53.42849 -9.02060 6344 ft 196 kts 350°
2026-04-26 21:47 53.44237 -9.02202 6344 ft 196 kts 349°
2026-04-26 21:47 53.45620 -9.02343 6344 ft 196 kts 349°
2026-04-26 21:48 53.47001 -9.02484 6344 ft 196 kts 349°
2026-04-26 21:48 53.48363 -9.02623 6344 ft 196 kts 349°
2026-04-26 21:48 53.49760 -9.02765 6344 ft 196 kts 349°
2026-04-26 21:48 53.50917 -9.02883 6344 ft 196 kts 349°
2026-04-26 21:49 53.51915 -9.02985 6344 ft 196 kts 349°
2026-04-26 21:49 53.52814 -9.03076 6344 ft 196 kts 349°
2026-04-26 21:49 53.53830 -9.03180 6344 ft 196 kts 349°
2026-04-26 21:49 53.54762 -9.03275 6344 ft 196 kts 349°
2026-04-26 21:50 53.55801 -9.03381 6344 ft 196 kts 349°
2026-04-26 21:50 53.56659 -9.03469 6344 ft 196 kts 349°
2026-04-26 21:50 53.58060 -9.03612 6344 ft 196 kts 349°
2026-04-26 21:50 53.59277 -9.03736 6344 ft 196 kts 349°
2026-04-26 21:51 53.60606 -9.03872 6344 ft 196 kts 349°
2026-04-26 21:51 53.61827 -9.03818 6337 ft 204 kts
2026-04-26 21:51 53.62741 -9.02916 6296 ft 215 kts 40°
2026-04-26 21:51 53.63305 -9.01416 6080 ft 209 kts 71°
2026-04-26 21:52 53.63376 -8.99685 5831 ft 202 kts 103°
2026-04-26 21:52 53.62967 -8.98220 5586 ft 192 kts 135°
2026-04-26 21:52 53.62298 -8.97019 5284 ft 189 kts 136°
2026-04-26 21:52 53.61790 -8.95819 5590 ft 140 kts 121°
2026-04-26 21:53 53.61488 -8.94844 5205 ft 145 kts 126°
2026-04-26 21:53 53.61035 -8.93768 4658 ft 168 kts 133°
2026-04-26 21:53 53.60438 -8.92678 4118 ft 187 kts 139°
2026-04-26 21:53 53.59757 -8.90840 3360 ft 206 kts 100°
2026-04-26 21:54 53.59989 -8.88839 3341 ft 183 kts 56°
2026-04-26 21:54 53.60761 -8.87490 3343 ft 169 kts 40°
2026-04-26 21:54 53.61430 -8.86461 3349 ft 176 kts 38°
2026-04-26 21:54 53.62117 -8.85471 3352 ft 187 kts 37°
2026-04-26 21:55 53.62859 -8.84433 3350 ft 193 kts 36°
2026-04-26 21:55 53.63707 -8.83259 3348 ft 198 kts 36°
2026-04-26 21:55 53.64720 -8.81866 3346 ft 201 kts 36°
2026-04-26 21:55 53.65700 -8.80522 3345 ft 202 kts 36°
2026-04-26 21:56 53.66569 -8.79328 3345 ft 203 kts 36°
2026-04-26 21:56 53.67388 -8.78203 3345 ft 204 kts 36°
2026-04-26 21:56 53.68196 -8.77093 3345 ft 204 kts 36°
2026-04-26 21:56 53.68989 -8.76003 3344 ft 204 kts 36°
2026-04-26 21:57 53.69778 -8.74918 3344 ft 204 kts 36°
2026-04-26 21:57 53.70582 -8.73811 3344 ft 204 kts 36°
2026-04-26 21:57 53.71421 -8.72655 3344 ft 204 kts 36°
2026-04-26 21:57 53.72229 -8.71544 3344 ft 204 kts 36°
2026-04-26 21:58 53.73071 -8.70382 3338 ft 205 kts 36°
2026-04-26 21:58 53.73856 -8.69301 3264 ft 208 kts 36°
2026-04-26 21:58 53.74730 -8.68094 3201 ft 209 kts 36°
2026-04-26 21:58 53.75877 -8.66512 3122 ft 210 kts 36°
2026-04-26 21:59 53.77036 -8.64910 3043 ft 210 kts 36°
2026-04-26 21:59 53.78180 -8.63329 2967 ft 210 kts 36°
2026-04-26 21:59 53.79306 -8.61771 2874 ft 187 kts 36°
2026-04-26 21:59 53.80246 -8.60467 2754 ft 159 kts 36°
2026-04-26 22:00 53.81046 -8.59355 2727 ft 132 kts 35°
2026-04-26 22:00 53.81723 -8.58453 2715 ft 106 kts 23°
2026-04-26 22:00 53.82391 -8.58009 2478 ft 108 kts 10°
2026-04-26 22:00 53.83229 -8.57639 2179 ft 127 kts
2026-04-26 22:01 53.84087 -8.57285 2155 ft 120 kts
2026-04-26 22:01 53.84890 -8.56971 2135 ft 115 kts
2026-04-26 22:01 53.85676 -8.56674 2115 ft 111 kts
2026-04-26 22:01 53.86438 -8.56391 2102 ft 108 kts
2026-04-26 22:02 53.87178 -8.56119 2081 ft 107 kts
2026-04-26 22:02 53.87677 -8.55936 2064 ft 107 kts
2026-04-26 22:02 53.88664 -8.55563 2025 ft 103 kts 15°
2026-04-26 22:02 53.89290 -8.54912 1947 ft 105 kts 32°
2026-04-26 22:03 53.89866 -8.54138 1875 ft 103 kts 34°
2026-04-26 22:03 53.90429 -8.53367 1796 ft 104 kts 34°
2026-04-26 22:03 53.91026 -8.52544 1750 ft 108 kts 34°
2026-04-26 22:03 53.91617 -8.51725 1720 ft 109 kts 34°
2026-04-26 22:04 53.92222 -8.50884 1694 ft 109 kts 35°
2026-04-26 22:04 53.92815 -8.50060 1652 ft 108 kts 34°
2026-04-26 22:04 53.93459 -8.49351 1620 ft 106 kts
2026-04-26 22:04 53.94167 -8.49540 1590 ft 101 kts 322°
2026-04-26 22:05 53.94537 -8.50527 1561 ft 100 kts 279°
2026-04-26 22:05 53.94525 -8.51742 1524 ft 102 kts 255°
2026-04-26 22:05 53.94198 -8.52872 1450 ft 108 kts 238°
2026-04-26 22:05 53.93878 -8.54022 1399 ft 106 kts 252°
2026-04-26 22:06 53.93629 -8.55239 1378 ft 104 kts 254°
2026-04-26 22:06 53.93431 -8.56449 1334 ft 105 kts 259°
2026-04-26 22:06 53.93454 -8.57722 1293 ft 104 kts 277°
2026-04-26 22:06 53.93509 -8.58924 1362 ft 96 kts 271°
2026-04-26 22:07 53.93496 -8.60110 1440 ft 103 kts 276°
2026-04-26 22:07 53.93566 -8.61394 1590 ft 112 kts 271°
2026-04-26 22:07 53.93496 -8.62839 1619 ft 127 kts 262°
2026-04-26 22:07 53.93381 -8.63870 1654 ft 133 kts 259°
2026-04-26 22:08 53.92889 -8.65981 1497 ft 151 kts 248°
2026-04-26 22:08 53.92560 -8.67611 1564 ft 135 kts 254°
2026-04-26 22:08 53.92320 -8.69101 1560 ft 123 kts 255°
2026-04-26 22:08 53.92095 -8.70548 1451 ft 124 kts 258°
2026-04-26 22:09 53.91940 -8.71934 1576 ft 113 kts 259°
2026-04-26 22:09 53.91807 -8.73211 1492 ft 92 kts 265°
2026-04-26 22:09 53.91797 -8.74441 1346 ft 113 kts 271°
2026-04-26 22:09 53.91774 -8.75807 1180 ft 113 kts 257°
2026-04-26 22:10 53.91563 -8.77149 1026 ft 116 kts 258°
2026-04-26 22:10 53.91423 -8.78524 894 ft 117 kts 261°
2026-04-26 22:10 53.91256 -8.79914 724 ft 113 kts 260°
2026-04-26 22:10 53.91120 -8.81012 652 ft 72 kts 259°
2026-04-26 22:11 53.91042 -8.81694 636 ft 47 kts 258°
2026-04-26 22:11 53.90990 -8.82173 616 ft 34 kts 257°
2026-04-26 22:11 53.91001 -8.82505 600 ft 25 kts 339°
2026-04-26 22:11 53.91142 -8.82560 598 ft 16 kts 344°
2026-04-26 22:12 53.91214 -8.82512 600 ft 6 kts 57°
2026-04-26 22:12 53.91201 -8.82504 600 ft 0 kts 222°